CW3508 Weather Reports


Display with metric or nautical units.
time (UTC)temp
F
wind
direction
speed
MPH
gust
MPH
rain 1hr
in
rain 24hr
in
rain mn
in
humidity
%
barometer
mb
20260509093529 61 159 0.0 1.0 0.01 0.02 0.02 96 1007.4
20260509093036 61 159 0.0 1.0 0.01 0.02 0.02 95 1007.4
20260509092536 61 159 0.0 1.0 0.02 0.02 0.02 95 1007.1
20260509092036 61 159 0.0 1.0 0.02 0.02 0.02 95 1007.1
20260509091521 61 159 0.0 1.0 0.02 0.02 0.02 95 1007.1
20260509091034 61 160 0.0 1.0 0.02 0.02 0.02 95 1007.4
20260509090528 61 160 0.0 3.0 0.02 0.02 0.02 95 1007.4
20260509090030 61 159 1.0 3.0 0.02 0.02 0.02 95 1007.4
20260509085530 61 187 0.0 1.0 0.02 0.02 0.02 95 1007.4
20260509084537 60 187 0.0 1.0 0.02 0.02 0.02 95 1007.4
20260509084037 60 189 0.0 2.0 0.02 0.02 0.02 95 1008.4
20260509083539 60 189 1.0 2.0 0.01 0.01 0.01 95 1008.4
20260509083029 60 162 0.0 1.0 0.01 0.01 0.01 95 1008.4
20260509082530 60 162 0.0 2.0 0.00 0.00 0.00 95 1008.7
20260509082029 60 162 0.0 2.0 0.00 0.00 0.00 95 1008.7
20260509081542 60 161 0.0 2.0 0.00 0.00 0.00 95 1008.7
20260509081053 60 163 0.0 2.0 0.00 0.00 0.00 94 1009.2
20260509080532 60 180 0.0 0.0 0.00 0.00 0.00 94 1009.2
20260509080020 60 180 0.0 2.0 0.00 0.00 0.00 94 1009.2
20260509075535 59 180 1.0 2.0 0.00 0.00 0.00 94 1009.2
20260509075039 59 184 0.0 0.0 0.00 0.00 0.00 94 1009.2
20260509074539 59 184 0.0 0.0 0.00 0.00 0.00 94 1009.2
20260509074029 59 184 0.0 0.0 0.00 0.00 0.00 94 1008.9
20260509073531 59 184 0.0 0.0 0.00 0.00 0.00 94 1008.9
20260509073026 59 184 0.0 0.0 0.00 0.00 0.00 94 1008.9
20260509072042 59 184 0.0 0.0 0.00 0.00 0.00 94 1008.6
20260509071553 59 184 0.0 0.0 0.00 0.00 0.00 94 1008.6
20260509071018 59 184 0.0 0.0 0.00 0.00 0.00 94 1008.2
20260509070535 59 184 0.0 2.0 0.00 0.00 0.00 94 1008.2
20260509070025 59 184 1.0 2.0 0.00 0.00 0.00 94 1008.2
20260509065526 59 184 0.0 1.0 0.00 0.00 0.00 94 1008.7
20260509065028 59 184 0.0 0.0 0.00 0.00 0.00 94 1008.7
20260509064543 59 184 0.0 0.0 0.00 0.00 0.00 94 1008.7
20260509064023 58 184 0.0 0.0 0.00 0.00 0.00 94 1008.6
20260509063525 58 184 0.0 0.0 0.00 0.00 0.00 94 1008.6
20260509063042 58 184 0.0 0.0 0.00 0.00 0.00 94 1008.6
20260509062543 58 184 0.0 0.0 0.00 0.00 0.00 94 1008.6
20260509062038 58 184 0.0 0.0 0.00 0.00 0.00 94 1008.6
20260509061530 58 184 0.0 0.0 0.00 0.00 0.00 94 1008.6
20260509061023 58 184 0.0 0.0 0.00 0.00 0.00 94 1008.6
20260509060525 58 184 0.0 0.0 0.00 0.00 0.00 94 1008.6
20260509060033 58 184 0.0 0.0 0.00 0.00 0.00 94 1008.6
20260509055546 58 184 0.0 0.0 0.00 0.00 0.00 93 1009.0
20260509055033 58 184 0.0 0.0 0.00 0.00 0.00 93 1009.0
20260509054520 58 184 0.0 0.0 0.00 0.00 0.00 93 1009.0
20260509054036 58 184 0.0 0.0 0.00 0.00 0.00 93 1009.1
20260509053523 58 184 0.0 0.0 0.00 0.00 0.00 93 1009.1
20260509053031 58 184 0.0 0.0 0.00 0.00 0.00 93 1009.1
20260509052519 58 184 0.0 0.0 0.00 0.00 0.00 93 1009.2
20260509052055 58 184 0.0 0.0 0.00 0.00 0.00 93 1009.2
20260509051534 58 184 0.0 0.0 0.00 0.00 0.00 93 1009.2
20260509051035 58 184 0.0 0.0 0.00 0.00 0.00 93 1009.4
20260509050521 58 184 0.0 0.0 0.00 0.00 0.00 92 1009.4
20260509050030 58 184 0.0 0.0 0.00 0.00 0.00 92 1009.4
20260509045527 58 184 0.0 0.0 0.00 0.00 0.00 92 1009.3
20260509044605 58 184 0.0 0.0 0.00 0.00 0.00 92 1009.3
20260509044048 58 184 0.0 0.0 0.00 0.00 0.00 92 1009.3
20260509043534 58 184 0.0 0.0 0.00 0.00 0.00 92 1009.3
20260509043048 58 184 0.0 0.0 0.00 0.00 0.00 92 1009.3
20260509042528 58 184 0.0 1.0 0.00 0.00 0.00 92 1009.3
20260509042017 59 184 0.0 1.0 0.00 0.00 0.00 91 1009.3
20260509041534 59 184 0.0 0.0 0.00 0.00 0.00 91 1009.3
20260509041018 59 184 0.0 0.0 0.00 0.00 0.00 91 1009.2
20260509040534 59 184 0.0 0.0 0.00 0.00 0.00 91 1009.2
20260509035530 59 184 0.0 0.0 0.00 0.00 0.00 91 1009.5
20260509035048 59 184 0.0 0.0 0.00 0.00 0.00 91 1009.5
20260509034525 59 184 0.0 0.0 0.00 0.00 0.00 91 1009.5
20260509034022 59 184 0.0 0.0 0.00 0.00 0.00 91 1009.7
20260509033541 59 184 0.0 0.0 0.00 0.00 0.00 91 1009.7
20260509033019 59 184 0.0 1.0 0.00 0.00 0.00 91 1009.7
20260509032518 59 184 0.0 1.0 0.00 0.00 0.00 91 1009.2
20260509032048 59 184 0.0 1.0 0.00 0.00 0.00 90 1009.2
20260509031516 59 184 0.0 0.0 0.00 0.00 0.00 90 1009.2
20260509030536 60 184 0.0 1.0 0.00 0.00 0.00 90 1009.0
20260509030022 60 184 0.0 0.0 0.00 0.00 0.00 90 1009.0
20260509025556 60 184 0.0 0.0 0.00 0.00 0.00 90 1009.2
20260509025021 60 184 0.0 0.0 0.00 0.00 0.00 90 1009.2
20260509024521 60 184 0.0 0.0 0.00 0.00 0.00 89 1009.2
20260509024025 60 184 0.0 0.0 0.00 0.00 0.00 89 1009.5
20260509023542 60 184 0.0 0.0 0.00 0.00 0.00 89 1009.5
20260509023033 60 184 0.0 0.0 0.00 0.00 0.00 89 1009.5
20260509022536 60 184 0.0 0.0 0.00 0.00 0.00 89 1009.6
20260509022021 60 184 0.0 0.0 0.00 0.00 0.00 89 1009.6
20260509021519 60 184 0.0 0.0 0.00 0.00 0.00 89 1009.6
20260509021025 60 184 0.0 0.0 0.00 0.00 0.00 89 1009.7
20260509020532 60 184 0.0 0.0 0.00 0.00 0.00 89 1009.7
20260509020048 60 184 0.0 0.0 0.00 0.00 0.00 89 1009.7
20260509015530 60 184 0.0 0.0 0.00 0.00 0.00 89 1009.2
20260509015036 60 184 0.0 0.0 0.00 0.00 0.00 89 1009.2
20260509014542 60 184 0.0 0.0 0.00 0.00 0.00 88 1009.2
20260509014031 60 184 0.0 0.0 0.00 0.00 0.00 88 1009.2
20260509013530 61 184 0.0 0.0 0.00 0.00 0.00 88 1009.2
20260509013019 61 184 0.0 0.0 0.00 0.00 0.00 87 1009.2
20260509012538 61 184 0.0 0.0 0.00 0.00 0.00 88 1009.2
20260509012040 61 184 0.0 0.0 0.00 0.00 0.00 88 1009.2
20260509011545 61 184 0.0 0.0 0.00 0.00 0.00 88 1009.2
20260509010546 61 184 0.0 0.0 0.00 0.00 0.00 87 1009.4
20260509010026 61 184 0.0 0.0 0.00 0.00 0.00 87 1009.4
20260509005556 61 184 0.0 1.0 0.00 0.00 0.00 87 1009.5
20260509005047 61 184 0.0 1.0 0.00 0.00 0.00 87 1009.5
20260509004530 62 184 0.0 0.0 0.00 0.00 0.00 86 1009.5
20260509004031 62 184 0.0 0.0 0.00 0.00 0.00 87 1009.7
20260509003040 62 184 0.0 1.0 0.00 0.00 0.00 86 1009.7
20260509002526 62 184 0.0 0.0 0.00 0.00 0.00 86 1009.7
20260509002018 62 184 0.0 0.0 0.00 0.00 0.00 86 1009.7
20260509001537 62 184 0.0 0.0 0.00 0.00 0.00 86 1009.7
20260509001025 62 184 0.0 0.0 0.00 0.00 0.00 86 1009.7
20260509000524 62 184 0.0 0.0 0.00 0.00 0.00 86 1009.7
20260509000042 62 184 0.0 0.0 0.00 0.00 0.00 86 1009.7
20260508235546 63 184 0.0 0.0 0.00 0.00 0.00 86 1010.1
20260508235027 63 184 0.0 0.0 0.00 0.00 0.00 85 1010.1
20260508234519 63 184 0.0 0.0 0.00 0.00 0.00 86 1010.1
20260508234026 63 184 0.0 0.0 0.00 0.00 0.00 86 1010.3
20260508233555 63 184 0.0 0.0 0.00 0.00 0.00 86 1010.3
20260508233105 63 184 0.0 0.0 0.00 0.00 0.00 86 1010.3
20260508232531 63 184 0.0 0.0 0.00 0.00 0.00 86 1010.7
20260508232025 63 184 0.0 0.0 0.00 0.00 0.00 86 1010.7
20260508231530 64 184 0.0 0.0 0.00 0.00 0.00 85 1010.7
20260508231020 64 184 0.0 0.0 0.00 0.00 0.00 85 1010.7
20260508230521 64 184 0.0 0.0 0.00 0.00 0.00 86 1010.7
20260508230040 64 184 0.0 1.0 0.00 0.00 0.00 85 1010.7
20260508225542 64 184 0.0 1.0 0.00 0.00 0.00 85 1010.5
20260508225032 64 184 0.0 0.0 0.00 0.00 0.00 85 1010.5
20260508224534 64 184 0.0 1.0 0.00 0.00 0.00 84 1010.5
20260508224033 64 184 0.0 1.0 0.00 0.00 0.00 84 1010.8
20260508223553 64 184 0.0 0.0 0.00 0.00 0.00 84 1010.8
20260508223038 64 184 0.0 0.0 0.00 0.00 0.00 84 1010.8
20260508222542 64 184 0.0 0.0 0.00 0.00 0.00 84 1010.8
20260508222035 65 184 0.0 1.0 0.00 0.00 0.00 83 1010.8
20260508221525 65 184 0.0 1.0 0.00 0.00 0.00 83 1010.8
20260508221017 65 184 0.0 2.0 0.00 0.00 0.00 82 1010.6
20260508220527 65 184 0.0 2.0 0.00 0.00 0.00 81 1010.6
20260508220040 65 185 0.0 1.0 0.00 0.00 0.00 82 1010.6
20260508215518 65 185 0.0 1.0 0.00 0.00 0.00 82 1010.7
20260508215101 65 185 0.0 2.0 0.00 0.00 0.00 82 1010.7
20260508214532 65 177 0.0 2.0 0.00 0.00 0.00 82 1010.7
20260508214022 65 132 0.0 1.0 0.00 0.00 0.00 82 1010.8
20260508213602 65 132 0.0 1.0 0.00 0.00 0.00 80 1010.8
20260508213043 65 132 0.0 1.0 0.00 0.00 0.00 82 1010.8
20260508212533 65 132 0.0 1.0 0.00 0.00 0.00 81 1010.9
20260508212034 65 132 0.0 1.0 0.00 0.00 0.00 81 1010.9
20260508211537 65 132 0.0 2.0 0.00 0.00 0.00 81 1010.9
20260508211022 65 132 0.0 2.0 0.00 0.00 0.00 80 1011.1
20260508210532 65 132 0.0 1.0 0.00 0.00 0.00 81 1011.1
20260508210037 65 132 0.0 1.0 0.00 0.00 0.00 80 1011.1
20260508205542 65 132 0.0 2.0 0.00 0.00 0.00 80 1011.3
20260508205034 66 132 0.0 2.0 0.00 0.00 0.00 80 1011.3
20260508204538 65 209 0.0 2.0 0.00 0.00 0.00 80 1011.3
20260508204034 66 209 0.0 1.0 0.00 0.00 0.00 80 1010.8
20260508203526 65 209 0.0 1.0 0.00 0.00 0.00 80 1010.8
20260508203025 65 209 0.0 1.0 0.00 0.00 0.00 81 1010.8
20260508202523 65 209 0.0 0.0 0.00 0.00 0.00 80 1011.2
20260508202020 65 209 0.0 1.0 0.00 0.00 0.00 80 1011.2
20260508201525 66 209 0.0 1.0 0.00 0.00 0.00 80 1011.2
20260508201026 66 209 0.0 1.0 0.00 0.00 0.00 80 1011.3
20260508200603 66 209 0.0 1.0 0.00 0.00 0.00 80 1011.3
20260508200036 66 209 0.0 0.0 0.00 0.00 0.00 79 1011.3
20260508195535 66 209 0.0 1.0 0.00 0.00 0.00 79 1011.3
20260508195017 66 209 0.0 1.0 0.00 0.00 0.00 80 1011.3
20260508194536 66 209 0.0 1.0 0.00 0.00 0.00 79 1011.3
20260508194019 66 209 0.0 1.0 0.00 0.00 0.00 79 1011.5
20260508193519 66 209 0.0 2.0 0.00 0.00 0.00 78 1011.5
20260508192517 66 178 0.0 0.0 0.00 0.00 0.00 78 1011.6
20260508192022 66 178 0.0 0.0 0.00 0.00 0.00 78 1011.6
20260508191518 66 178 0.0 2.0 0.00 0.00 0.00 76 1011.6
20260508191035 66 178 0.0 3.0 0.00 0.00 0.00 75 1011.1
20260508190546 66 248 0.0 3.0 0.00 0.00 0.00 75 1011.1
20260508190028 66 283 0.0 3.0 0.00 0.00 0.00 77 1011.1
20260508185521 66 259 0.0 2.0 0.00 0.00 0.00 75 1011.6
20260508185022 66 233 1.0 2.0 0.00 0.00 0.00 76 1011.6
20260508184534 66 250 1.0 2.0 0.00 0.00 0.00 77 1011.6
20260508184042 66 250 0.0 1.0 0.00 0.00 0.00 76 1011.8
20260508183533 67 250 0.0 1.0 0.00 0.00 0.00 77 1011.8
20260508183031 67 250 0.0 1.0 0.00 0.00 0.00 72 1011.8
20260508182532 67 254 0.0 2.0 0.00 0.00 0.00 73 1012.3
20260508182018 67 286 1.0 3.0 0.00 0.00 0.00 71 1012.3
20260508181524 67 180 1.0 3.0 0.00 0.00 0.00 70 1012.3
20260508181031 67 227 1.0 3.0 0.00 0.00 0.00 69 1012.4
20260508180516 67 179 0.0 3.0 0.00 0.00 0.00 73 1012.4
20260508180032 67 244 0.0 3.0 0.00 0.00 0.00 70 1012.4
20260508175536 67 236 1.0 4.0 0.00 0.00 0.00 70 1012.7
20260508175041 67 232 1.0 4.0 0.00 0.00 0.00 70 1012.7
20260508174533 67 297 0.0 2.0 0.00 0.00 0.00 74 1012.7
20260508174037 67 236 0.0 2.0 0.00 0.00 0.00 72 1012.8
20260508173542 68 265 0.0 2.0 0.00 0.00 0.00 71 1012.8
20260508173028 68 265 0.0 2.0 0.00 0.00 0.00 71 1012.8
20260508172538 68 279 1.0 2.0 0.00 0.00 0.00 72 1012.9
20260508172041 68 279 0.0 2.0 0.00 0.00 0.00 72 1012.9
20260508171552 68 279 0.0 2.0 0.00 0.00 0.00 71 1012.9
20260508171025 68 269 0.0 1.0 0.00 0.00 0.00 70 1013.2
20260508170520 68 269 0.0 2.0 0.00 0.00 0.00 69 1013.2
20260508170038 68 307 1.0 3.0 0.00 0.00 0.00 71 1013.2
20260508165534 68 308 1.0 2.0 0.00 0.00 0.00 71 1013.5
20260508165039 68 308 0.0 2.0 0.00 0.00 0.00 69 1013.5
20260508164522 68 308 0.0 2.0 0.00 0.00 0.00 68 1013.5
20260508164025 69 308 0.0 2.0 0.00 0.00 0.00 70 1013.6
20260508163529 69 308 1.0 2.0 0.00 0.00 0.00 71 1013.6
20260508163020 69 308 0.0 2.0 0.00 0.00 0.00 72 1013.6
20260508162528 69 308 1.0 3.0 0.00 0.00 0.00 72 1013.8
20260508162018 69 308 1.0 3.0 0.00 0.00 0.00 71 1013.8
20260508161515 69 304 1.0 3.0 0.00 0.00 0.00 73 1013.8
20260508161025 68 300 1.0 3.0 0.00 0.00 0.00 74 1013.9
20260508160039 67 300 1.0 2.0 0.00 0.00 0.00 74 1013.9
20260508155538 66 229 0.0 2.0 0.00 0.00 0.00 72 1014.4
20260508155023 65 294 1.0 2.0 0.00 0.00 0.00 74 1014.4
20260508154542 65 180 0.0 4.0 0.00 0.00 0.00 73 1014.4
20260508154044 65 260 0.0 3.0 0.00 0.00 0.00 75 1014.0
20260508153535 64 308 1.0 3.0 0.00 0.00 0.00 77 1014.0
20260508153022 64 204 1.0 4.0 0.00 0.00 0.00 75 1014.0
20260508152552 64 293 0.0 2.0 0.00 0.00 0.00 80 1014.0
20260508152030 64 256 0.0 2.0 0.00 0.00 0.00 81 1014.0
20260508151516 63 253 0.0 3.0 0.00 0.00 0.00 81 1014.0
20260508151048 63 253 1.0 3.0 0.00 0.00 0.00 82 1014.2
20260508150529 63 252 0.0 2.0 0.00 0.00 0.00 83 1014.2
20260508150015 63 252 0.0 1.0 0.00 0.00 0.00 82 1014.2
20260508145551 63 252 0.0 1.0 0.00 0.00 0.00 83 1014.3
20260508145034 63 252 0.0 2.0 0.00 0.00 0.00 85 1014.3
20260508144538 62 252 0.0 2.0 0.00 0.00 0.00 85 1014.3
20260508144027 62 252 0.0 1.0 0.00 0.00 0.00 84 1014.4
20260508143541 62 252 0.0 3.0 0.00 0.00 0.00 84 1014.4
20260508143049 61 252 1.0 3.0 0.00 0.00 0.00 85 1014.4
20260508142530 61 282 0.0 0.0 0.00 0.00 0.00 86 1014.4
20260508142025 61 282 0.0 0.0 0.00 0.00 0.00 87 1014.4
20260508141524 61 284 0.0 0.0 0.00 0.00 0.00 88 1014.4
20260508141017 60 265 0.0 0.0 0.00 0.00 0.00 90 1014.5
20260508140535 60 265 0.0 0.0 0.00 0.00 0.00 89 1014.5
20260508140015 60 199 0.0 0.0 0.00 0.01 0.00 91 1014.5
20260508135548 59 161 0.0 0.0 0.00 0.01 0.00 91 1014.8
20260508134543 59 161 0.0 0.0 0.00 0.01 0.00 91 1014.8
20260508134046 58 161 0.0 0.0 0.00 0.01 0.00 92 1014.9
20260508133513 58 161 0.0 0.0 0.00 0.01 0.00 92 1014.9
20260508133035 58 161 0.0 0.0 0.00 0.01 0.00 92 1014.9
20260508132520 58 161 0.0 0.0 0.00 0.01 0.00 93 1014.7
20260508132059 57 161 0.0 0.0 0.00 0.01 0.00 93 1014.7
20260508131525 57 161 0.0 0.0 0.00 0.01 0.00 94 1014.7
20260508130028 57 161 0.0 0.0 0.00 0.01 0.00 95 1014.5
20260508125602 56 161 0.0 0.0 0.00 0.01 0.00 95 1014.5
20260508125043 56 161 0.0 0.0 0.00 0.01 0.00 94 1014.5
20260508124529 56 161 0.0 0.0 0.00 0.01 0.00 95 1014.5
20260508124018 56 161 0.0 0.0 0.00 0.01 0.00 95 1014.5
20260508123522 56 161 0.0 0.0 0.00 0.01 0.00 95 1014.5
20260508123040 56 161 0.0 0.0 0.00 0.01 0.00 95 1014.5
20260508122542 56 161 0.0 0.0 0.00 0.01 0.00 95 1014.1
20260508122031 55 161 0.0 0.0 0.00 0.01 0.00 95 1014.1
20260508121024 55 161 0.0 0.0 0.00 0.01 0.00 95 1013.9
20260508120520 55 161 0.0 0.0 0.00 0.01 0.00 95 1013.9
20260508120016 55 161 0.0 0.0 0.00 0.01 0.00 95 1013.9
20260508115542 55 161 0.0 0.0 0.00 0.01 0.00 95 1013.8
20260508115021 55 161 0.0 0.0 0.00 0.01 0.00 95 1013.8
20260508114518 55 161 0.0 0.0 0.00 0.01 0.00 95 1013.8
20260508113521 55 161 0.0 0.0 0.00 0.01 0.00 95 1013.4
20260508113025 55 161 0.0 0.0 0.00 0.01 0.00 95 1013.4
20260508112554 55 161 0.0 0.0 0.00 0.01 0.00 95 1013.3
20260508112024 55 161 0.0 1.0 0.00 0.01 0.00 95 1013.3
20260508111528 55 161 0.0 1.0 0.00 0.01 0.00 94 1013.3
20260508111026 55 161 0.0 0.0 0.00 0.01 0.00 95 1013.0
20260508110541 55 161 0.0 0.0 0.00 0.01 0.00 95 1013.0
20260508110021 55 161 0.0 0.0 0.00 0.01 0.00 95 1013.0
20260508105519 55 161 0.0 0.0 0.00 0.01 0.00 95 1012.9
20260508104529 55 161 0.0 0.0 0.00 0.01 0.00 94 1012.9
20260508104018 55 161 0.0 0.0 0.00 0.01 0.00 94 1012.9
20260508103522 55 161 0.0 0.0 0.00 0.01 0.00 95 1012.9
20260508103039 55 161 0.0 0.0 0.00 0.01 0.00 95 1012.9
20260508102539 55 161 0.0 0.0 0.00 0.01 0.00 95 1012.8
20260508102041 55 161 0.0 0.0 0.00 0.01 0.00 95 1012.8
20260508101530 55 161 0.0 0.0 0.00 0.01 0.00 95 1012.8
20260508101023 55 161 0.0 0.0 0.00 0.01 0.00 95 1012.8
20260508100522 55 161 0.0 0.0 0.00 0.01 0.00 95 1012.8
20260508100033 55 161 0.0 0.0 0.00 0.02 0.00 95 1012.8
20260508095523 55 161 0.0 0.0 0.00 0.02 0.00 95 1012.4
20260508095023 55 161 0.0 0.0 0.00 0.02 0.00 94 1012.4
20260508094554 55 161 0.0 0.0 0.00 0.02 0.00 94 1012.4
20260508094025 55 161 0.0 0.0 0.00 0.02 0.00 94 1011.9